Time,TemperatureF,DewpointF,PressureIn,WindDirection,WindDirectionDegrees,WindSpeedMPH,WindSpeedGustMPH,Humidity,HourlyPrecipIn,Conditions,Clouds,dailyrainin,SoftwareType,DateUTC
2013-03-30 00:01:00,41.0,30.2,30.03,NNE,22,4.0,-999.0,65,-99.99,,,0.00,Acu-Link.com,2013-03-30 04:01:00,
2013-03-30 00:16:00,41.0,30.5,30.03,WNW,292,1.6,-999.0,66,-99.99,,,0.00,Acu-Link.com,2013-03-30 04:16:00,
2013-03-30 00:46:00,39.2,29.5,30.03,NE,45,1.6,-999.0,68,-99.99,,,0.00,Acu-Link.com,2013-03-30 04:46:00,
2013-03-30 01:01:00,39.2,29.5,30.03,SE,135,3.1,-999.0,68,-99.99,,,0.00,Acu-Link.com,2013-03-30 05:01:00,
2013-03-30 01:16:00,41.0,30.9,30.02,ENE,67,5.6,-999.0,67,-99.99,,,0.00,Acu-Link.com,2013-03-30 05:16:00,
2013-03-30 01:32:00,39.2,29.2,30.02,WNW,292,1.6,-999.0,67,-99.99,,,0.00,Acu-Link.com,2013-03-30 05:32:00,
2013-03-30 01:47:00,39.2,29.5,66.76,ENE,67,1.6,-999.0,68,-99.99,,,0.00,Acu-Link.com,2013-03-30 05:47:00,
2013-03-30 02:02:00,39.2,29.9,30.03,WSW,247,3.6,-999.0,69,-99.99,,,0.00,Acu-Link.com,2013-03-30 06:02:00,
2013-03-30 02:17:00,37.4,28.5,30.03,NE,45,4.0,-999.0,70,-99.99,,,0.00,Acu-Link.com,2013-03-30 06:17:00,
2013-03-30 02:32:00,37.4,28.9,30.02,WNW,292,3.1,-999.0,71,-99.99,,,0.00,Acu-Link.com,2013-03-30 06:32:00,
2013-03-30 02:48:00,37.4,28.9,30.03,NNW,337,4.7,-999.0,71,-99.99,,,0.00,Acu-Link.com,2013-03-30 06:48:00,
2013-03-30 03:03:00,37.4,29.2,30.02,West,270,2.0,-999.0,72,-99.99,,,0.00,Acu-Link.com,2013-03-30 07:03:00,
2013-03-30 03:18:00,37.4,29.6,30.02,West,270,2.7,-999.0,73,-99.99,,,0.00,Acu-Link.com,2013-03-30 07:18:00,
2013-03-30 03:34:00,37.4,30.2,30.02,WSW,247,3.6,-999.0,75,-99.99,,,0.00,Acu-Link.com,2013-03-30 07:34:00,
2013-03-30 03:49:00,35.6,28.8,30.02,NNW,337,2.0,-999.0,76,-99.99,,,0.00,Acu-Link.com,2013-03-30 07:49:00,
2013-03-30 04:04:00,35.6,29.1,30.02,NNW,337,2.7,-999.0,77,-99.99,,,0.00,Acu-Link.com,2013-03-30 08:04:00,
2013-03-30 04:20:00,35.6,29.4,30.02,NNW,337,2.0,-999.0,78,-99.99,,,0.00,Acu-Link.com,2013-03-30 08:20:00,
2013-03-30 04:35:00,35.6,29.7,30.02,NNW,337,2.0,-999.0,79,-99.99,,,0.00,Acu-Link.com,2013-03-30 08:35:00,
2013-03-30 04:50:00,35.6,29.7,30.02,NNE,22,1.6,-999.0,79,-99.99,,,0.00,Acu-Link.com,2013-03-30 08:50:00,
2013-03-30 05:05:00,35.6,29.7,30.02,WSW,247,4.0,-999.0,79,-99.99,,,0.00,Acu-Link.com,2013-03-30 09:05:00,
2013-03-30 05:21:00,35.6,29.7,30.02,WNW,292,2.7,-999.0,79,-99.99,,,0.00,Acu-Link.com,2013-03-30 09:21:00,
2013-03-30 06:06:00,35.6,29.1,30.02,West,270,2.7,-999.0,77,-99.99,,,0.00,Acu-Link.com,2013-03-30 10:06:00,
2013-03-30 06:22:00,35.6,28.8,30.03,NW,315,4.0,-999.0,76,-99.99,,,0.00,Acu-Link.com,2013-03-30 10:22:00,
2013-03-30 06:37:00,35.6,29.1,30.03,South,180,4.0,-999.0,77,-99.99,,,0.00,Acu-Link.com,2013-03-30 10:37:00,
2013-03-30 06:52:00,35.6,28.8,30.03,West,270,2.0,-999.0,76,-99.99,,,0.00,Acu-Link.com,2013-03-30 10:52:00,
2013-03-30 07:08:00,35.6,29.1,30.04,NNW,337,5.6,-999.0,77,-99.99,,,0.00,Acu-Link.com,2013-03-30 11:08:00,
2013-03-30 07:23:00,35.6,28.5,30.04,SSW,202,8.3,-999.0,75,-99.99,,,0.00,Acu-Link.com,2013-03-30 11:23:00,
2013-03-30 07:38:00,37.4,29.6,30.05,NNE,22,7.2,-999.0,73,-99.99,,,0.00,Acu-Link.com,2013-03-30 11:38:00,
2013-03-30 07:54:00,37.4,28.9,30.04,NW,315,5.6,-999.0,71,-99.99,,,0.00,Acu-Link.com,2013-03-30 11:54:00,
2013-03-30 08:09:00,39.2,29.9,30.04,North,0,4.7,-999.0,69,-99.99,,,0.00,Acu-Link.com,2013-03-30 12:09:00,
2013-03-30 08:24:00,41.0,30.9,30.05,NNE,22,5.6,-999.0,67,-99.99,,,0.00,Acu-Link.com,2013-03-30 12:24:00,
2013-03-30 08:39:00,41.0,30.2,30.05,NE,45,6.3,-999.0,65,-99.99,,,0.00,Acu-Link.com,2013-03-30 12:39:00,
2013-03-30 08:54:00,41.0,29.8,30.05,NNW,337,7.2,-999.0,64,-99.99,,,0.00,Acu-Link.com,2013-03-30 12:54:00,
2013-03-30 09:10:00,42.8,30.7,30.05,North,0,3.6,-999.0,62,-99.99,,,0.00,Acu-Link.com,2013-03-30 13:10:00,
2013-03-30 09:25:00,42.8,30.3,30.05,North,0,6.7,-999.0,61,-99.99,,,0.00,Acu-Link.com,2013-03-30 13:25:00,
2013-03-30 09:40:00,44.6,29.9,30.05,NW,315,4.0,-999.0,56,-99.99,,,0.00,Acu-Link.com,2013-03-30 13:40:00,
2013-03-30 09:56:00,46.4,30.7,30.05,SSW,202,3.1,-999.0,54,-99.99,,,0.00,Acu-Link.com,2013-03-30 13:56:00,
2013-03-30 10:11:00,46.4,29.3,30.05,WSW,247,5.6,-999.0,51,-99.99,,,0.00,Acu-Link.com,2013-03-30 14:11:00,
2013-03-30 10:26:00,46.4,27.3,30.04,NE,45,4.7,-999.0,47,-99.99,,,0.00,Acu-Link.com,2013-03-30 14:26:00,
2013-03-30 10:42:00,46.4,26.2,30.04,NNW,337,7.2,-999.0,45,-99.99,,,0.00,Acu-Link.com,2013-03-30 14:42:00,
2013-03-30 10:57:00,48.2,27.3,30.04,NNE,22,4.0,-999.0,44,-99.99,,,0.00,Acu-Link.com,2013-03-30 14:57:00,
2013-03-30 11:12:00,50.0,27.8,30.04,ENE,67,4.7,-999.0,42,-99.99,,,0.00,Acu-Link.com,2013-03-30 15:12:00,
2013-03-30 11:27:00,50.0,26.6,30.04,WSW,247,5.1,-999.0,40,-99.99,,,0.00,Acu-Link.com,2013-03-30 15:27:00,
2013-03-30 11:42:00,50.0,24.1,30.03,NNW,337,5.1,-999.0,36,-99.99,,,0.00,Acu-Link.com,2013-03-30 15:42:00,
2013-03-30 11:58:00,51.8,23.6,30.03,West,270,4.0,-999.0,33,-99.99,,,0.00,Acu-Link.com,2013-03-30 15:58:00,
2013-03-30 12:13:00,51.8,24.3,30.03,NNE,22,3.6,-999.0,34,-99.99,,,0.00,Acu-Link.com,2013-03-30 16:13:00,
2013-03-30 12:28:00,51.8,21.4,30.03,WSW,247,6.7,-999.0,30,-99.99,,,0.00,Acu-Link.com,2013-03-30 16:28:00,
2013-03-30 12:44:00,51.8,22.1,30.02,North,0,7.8,-999.0,31,-99.99,,,0.00,Acu-Link.com,2013-03-30 16:44:00,
2013-03-30 12:59:00,51.8,20.6,30.02,NW,315,10.7,-999.0,29,-99.99,,,0.00,Acu-Link.com,2013-03-30 16:59:00,
2013-03-30 13:14:00,53.6,23.7,30.01,NW,315,6.7,-999.0,31,-99.99,,,0.00,Acu-Link.com,2013-03-30 17:14:00,
2013-03-30 13:29:00,51.8,23.6,30.01,NW,315,11.4,-999.0,33,-99.99,,,0.00,Acu-Link.com,2013-03-30 17:29:00,
2013-03-30 13:44:00,51.8,22.9,30.01,NNW,337,7.2,-999.0,32,-99.99,,,0.00,Acu-Link.com,2013-03-30 17:44:00,
2013-03-30 13:59:00,51.8,-45.8,30.00,NE,45,9.8,-999.0,0,-99.99,,,0.00,Acu-Link.com,2013-03-30 17:59:00,
2013-03-30 14:15:00,53.6,25.2,29.99,North,0,6.7,-999.0,33,-99.99,,,0.00,Acu-Link.com,2013-03-30 18:15:00,
2013-03-30 14:30:00,51.8,23.6,29.99,NNW,337,10.3,-999.0,33,-99.99,,,0.00,Acu-Link.com,2013-03-30 18:30:00,
2013-03-30 14:45:00,53.6,25.2,29.99,NNW,337,10.7,-999.0,33,-99.99,,,0.00,Acu-Link.com,2013-03-30 18:45:00,
2013-03-30 15:00:00,53.6,24.5,29.99,ENE,67,6.3,-999.0,32,-99.99,,,0.00,Acu-Link.com,2013-03-30 19:00:00,
2013-03-30 15:31:00,53.6,25.2,29.98,North,0,11.4,-999.0,33,-99.99,,,0.00,Acu-Link.com,2013-03-30 19:31:00,
2013-03-30 16:02:00,53.6,23.7,29.98,NNE,22,10.7,-999.0,31,-99.99,,,0.00,Acu-Link.com,2013-03-30 20:02:00,
2013-03-30 16:17:00,53.6,25.2,29.97,West,270,5.1,-999.0,33,-99.99,,,0.00,Acu-Link.com,2013-03-30 20:17:00,
2013-03-30 16:32:00,53.6,23.7,29.97,SSW,202,5.1,-999.0,31,-99.99,,,0.00,Acu-Link.com,2013-03-30 20:32:00,
2013-03-30 16:48:00,53.6,23.7,29.98,NW,315,5.6,-999.0,31,-99.99,,,0.00,Acu-Link.com,2013-03-30 20:48:00,
2013-03-30 17:03:00,53.6,22.9,29.98,NNW,337,6.7,-999.0,30,-99.99,,,0.00,Acu-Link.com,2013-03-30 21:03:00,
2013-03-30 17:18:00,53.6,22.9,29.98,WSW,247,5.6,-999.0,30,-99.99,,,0.00,Acu-Link.com,2013-03-30 21:18:00,
2013-03-30 17:33:00,53.6,22.1,29.98,WSW,247,4.0,-999.0,29,-99.99,,,0.00,Acu-Link.com,2013-03-30 21:33:00,
2013-03-30 17:48:00,51.8,21.4,29.98,NW,315,10.3,-999.0,30,-99.99,,,0.00,Acu-Link.com,2013-03-30 21:48:00,
2013-03-30 18:04:00,51.8,22.1,29.99,NNE,22,3.6,-999.0,31,-99.99,,,0.00,Acu-Link.com,2013-03-30 22:04:00,
2013-03-30 18:19:00,51.8,23.6,29.98,WSW,247,5.6,-999.0,33,-99.99,,,0.00,Acu-Link.com,2013-03-30 22:19:00,
2013-03-30 18:34:00,50.0,22.0,29.98,WSW,247,6.3,-999.0,33,-99.99,,,0.00,Acu-Link.com,2013-03-30 22:34:00,
2013-03-30 18:49:00,50.0,23.4,29.99,WNW,292,7.8,-999.0,35,-99.99,,,0.00,Acu-Link.com,2013-03-30 22:49:00,
2013-03-30 19:04:00,48.2,23.2,29.99,NNE,22,1.6,-999.0,37,-99.99,,,0.00,Acu-Link.com,2013-03-30 23:04:00,
2013-03-30 19:19:00,46.4,22.2,29.99,West,270,2.0,-999.0,38,-99.99,,,0.00,Acu-Link.com,2013-03-30 23:19:00,
2013-03-30 19:35:00,46.4,23.4,30.00,NNW,337,2.7,-999.0,40,-99.99,,,0.00,Acu-Link.com,2013-03-30 23:35:00,
2013-03-30 19:50:00,44.6,22.9,30.00,NNW,337,0.0,-999.0,42,-99.99,,,0.00,Acu-Link.com,2013-03-30 23:50:00,
2013-03-30 20:05:00,44.6,24.1,30.01,West,270,2.0,-999.0,44,-99.99,,,0.00,Acu-Link.com,2013-03-31 00:05:00,
2013-03-30 20:21:00,42.8,23.5,30.01,WNW,292,1.1,-999.0,46,-99.99,,,0.00,Acu-Link.com,2013-03-31 00:21:00,
2013-03-30 20:36:00,42.8,24.0,30.01,West,270,1.6,-999.0,47,-99.99,,,0.00,Acu-Link.com,2013-03-31 00:36:00,
2013-03-30 21:06:00,41.0,24.3,30.02,West,270,1.1,-999.0,51,-99.99,,,0.00,Acu-Link.com,2013-03-31 01:06:00,
2013-03-30 21:37:00,37.4,24.8,30.02,NE,45,0.0,-999.0,60,-99.99,,,0.00,Acu-Link.com,2013-03-31 01:37:00,
2013-03-30 21:52:00,35.6,26.1,30.02,NE,45,0.0,-999.0,68,-99.99,,,0.00,Acu-Link.com,2013-03-31 01:52:00,
2013-03-30 22:07:00,35.6,25.0,30.02,NE,45,0.0,-999.0,65,-99.99,,,0.00,Acu-Link.com,2013-03-31 02:07:00,
2013-03-30 22:22:00,33.8,25.7,30.02,NE,45,1.6,-999.0,72,-99.99,,,0.00,Acu-Link.com,2013-03-31 02:22:00,
2013-03-30 22:37:00,32.0,25.0,30.02,NE,45,0.0,-999.0,75,-99.99,,,0.00,Acu-Link.com,2013-03-31 02:37:00,
2013-03-30 22:52:00,32.0,25.3,30.02,NE,45,0.0,-999.0,76,-99.99,,,0.00,Acu-Link.com,2013-03-31 02:52:00,
2013-03-30 23:07:00,32.0,25.3,30.03,NE,45,0.0,-999.0,76,-99.99,,,0.00,Acu-Link.com,2013-03-31 03:07:00,
2013-03-30 23:23:00,32.0,25.6,30.02,NE,45,0.0,-999.0,77,-99.99,,,0.00,Acu-Link.com,2013-03-31 03:23:00,
2013-03-30 23:38:00,30.2,26.0,30.02,NE,45,0.0,-999.0,84,-99.99,,,0.00,Acu-Link.com,2013-03-31 03:38:00,
2013-03-30 23:53:00,32.0,26.5,30.03,NE,45,2.7,-999.0,80,-99.99,,,0.00,Acu-Link.com,2013-03-31 03:53:00,